Wind_Speed
2 2 4 5 6 6 7 8 9 11 11 12 13 14 14 14 14 14 13 12 12 12 12 13 13 12 12 12 10 11 10 9 9 8 8 8 9 9 9 11 11 12 13 14 16 17 16
4 4 5 6 7 7 7 8 8 9 11 12 13 13 13 14 14 14 15 14 13 13 13 13 14 15 14 14 11 10 9 9 9 7 6 7 8 8 8 11 11 13 16 13 12 14 21
5 6 6 7 7 8 8 9 9 10 11 12 13 14 14 14 14 13 13 13 13 14 14 13 15 15 13 13 12 11 11 10 9 8 6 7 7 9 10 12 15 12 15 19 17 23 25
6 7 7 7 8 8 8 9 10 11 12 13 15 16 17 17 16 16 15 14 13 13 13 13 12 13 14 14 13 13 11 11 10 9 8 8 8 9 10 11 12 12 16 18 17 23 25
7 7 8 8 9 9 9 9 11 12 13 14 15 16 17 18 18 18 17 17 16 16 17 12 16 13 11 9 11 11 12 13 11 10 9 9 9 10 10 10 9 8 14 19 16 20 27
7 7 9 9 10 10 9 10 13 13 13 13 14 17 19 19 18 17 18 18 18 19 18 18 13 17 13 17 16 15 15 14 13 12 11 10 11 11 12 7 5 12 18 20 15 20 27
6 7 8 8 9 9 10 12 14 16 15 16 18 19 20 20 19 18 18 20 21 22 18 18 22 23 21 22 22 19 17 16 15 14 13 12 11 13 6 14 14 16 17 17 16 22 27
7 7 7 9 10 12 14 17 17 17 17 18 20 21 21 21 19 19 18 19 21 23 26 24 23 23 24 25 24 22 17 16 14 13 15 14 14 11 14 16 17 18 16 19 18 18 26
7 8 9 10 11 13 15 17 19 19 20 21 21 20 20 21 21 20 19 19 21 23 26 27 26 26 25 21 18 18 14 16 17 15 14 15 13 17 19 17 17 18 15 20 21 26 19
10 11 13 14 15 17 17 18 19 19 20 21 22 22 21 20 21 21 20 20 21 24 21 21 13 10 8 9 13 13 16 16 14 13 13 13 16 14 15 19 16 18 14 17 21 20 4
13 14 15 15 15 17 18 18 18 17 18 20 21 21 21 21 22 21 22 21 19 17 6 9 10 10 11 12 13 12 11 14 15 16 17 16 19 21 21 21 16 18 17 17 20 14 10
14 15 16 17 16 15 15 17 20 21 23 25 27 27 27 24 22 20 20 19 16 5 8 7 11 14 16 16 17 20 19 16 18 23 25 26 25 24 21 20 20 17 17 16 15 15 4
15 16 15 14 16 18 20 23 24 25 25 25 24 22 23 25 24 21 18 16 8 7 5 7 11 13 12 15 18 18 19 23 25 19 20 21 19 18 19 22 18 14 7 4 3 3 6
12 14 16 18 20 22 24 25 23 21 21 21 20 20 19 17 18 19 19 12 9 8 11 16 18 22 22 20 22 23 27 27 26 22 23 12 10 18 20 16 8 6 8 5 4 3 6
15 18 21 23 24 24 22 20 20 19 20 20 20 19 18 16 15 14 15 12 11 11 15 19 26 24 20 13 19 18 21 22 16 12 17 10 10 13 12 11 10 7 8 10 6 16 2
21 23 24 23 21 19 17 18 19 20 20 20 19 19 17 17 15 14 12 16 10 17 25 25 20 15 21 18 17 12 14 13 13 17 17 16 14 15 18 18 16 14 11 6 6 2 4
21 20 19 17 17 17 17 18 19 19 21 20 20 20 17 18 17 15 13 13 19 23 23 20 19 23 23 20 21 25 21 18 26 24 22 18 15 18 19 12 13 13 17 15 12 11 4
16 15 15 15 16 17 18 20 21 21 20 20 20 19 18 15 16 16 14 19 22 23 20 24 25 26 25 20 25 24 27 20 24 19 17 12 11 15 19 19 24 20 16 17 11 6 11
14 14 15 16 18 18 20 20 22 22 21 19 19 19 16 17 13 13 17 21 21 23 24 21 20 25 23 26 15 12 11 17 23 22 15 16 11 8 8 13 14 10 13 20 26 22 22
13 14 16 18 21 22 21 20 21 23 22 22 21 20 19 19 13 15 23 24 22 23 24 25 23 22 25 27 22 23 17 17 21 24 18 14 21 21 17 16 23 21 14 9 8 13 17
15 17 19 20 21 22 21 21 21 22 23 23 21 20 19 21 23 22 24 27 25 24 24 24 19 19 21 23 18 20 19 23 27 21 25 24 31 27 32 27 24 30 29 27 28 33 27
18 20 21 21 21 23 24 25 25 25 24 24 22 21 22 24 25 22 22 20 23 22 27 21 18 22 27 26 22 31 30 26 27 19 15 13 21 14 27 23 28 35 36 27 30 34 32
18 20 21 23 24 25 27 29 28 28 28 27 23 26 26 24 25 22 18 19 23 25 27 17 19 26 26 25 32 33 34 36 37 33 28 27 21 11 17 12 16 24 30 30 31 25 27
19 21 22 24 26 27 28 30 32 31 31 29 29 28 27 24 20 18 22 27 28 25 27 28 27 29 24 26 34 35 36 36 33 35 31 37 22 18 19 10 5 21 9 8 14 8 10
21 23 24 26 27 29 30 30 31 31 31 29 28 27 27 29 26 22 19 19 18 22 20 20 20 26 32 29 28 18 18 15 16 7 16 25 28 17 8 15 20 21 12 2 17 4 7
22 24 26 27 28 29 29 30 30 30 30 28 26 26 26 28 8 11 21 24 23 23 20 19 15 22 20 22 14 9 6 17 4 10 9 11 23 29 8 5 4 5 8 2 8 9 7
23 25 27 28 28 29 29 29 27 26 26 25 20 19 19 25 21 23 27 28 22 23 30 28 20 20 18 15 15 18 21 19 17 9 10 6 18 31 28 14 5 12 15 6 4 3 9
25 26 27 28 29 28 28 26 25 24 22 19 18 18 20 27 29 18 25 24 27 24 27 26 28 10 11 11 7 11 5 9 8 15 11 7 13 8 20 20 14 15 7 0 9 13 14
25 27 29 29 28 26 25 24 25 21 18 18 20 19 21 25 27 25 25 13 15 24 28 27 27 28 23 19 21 12 20 24 21 22 24 17 16 19 16 20 14 29 16 11 19 20 18
Wind_Direction
229 296 320 332 340 348 352 356 358 2 5 1 360 359 357 352 347 340 332 326 323 323 322 321 316 311 304 292 300 301 306 309 313 322 333 347 355 1 4 353 345 346 341 330 314 314 313
252 277 299 313 325 334 337 340 342 346 349 350 353 353 352 350 347 346 340 333 327 323 321 317 315 309 300 292 290 294 294 303 304 309 323 338 348 351 350 348 347 340 343 344 340 329 322
264 281 295 308 319 323 324 326 330 332 334 336 337 339 342 342 340 340 340 339 335 332 329 323 320 315 306 295 287 296 287 295 296 301 316 329 340 338 338 342 340 338 346 360 336 328 323
269 282 295 308 312 313 315 317 320 326 329 332 333 334 333 334 334 335 335 335 334 334 331 327 325 318 311 304 288 291 282 291 292 296 309 321 326 326 325 333 334 343 341 343 328 318 324
278 287 295 299 305 310 315 323 330 330 331 331 335 334 331 327 326 326 325 325 327 329 330 330 325 319 314 310 301 287 283 287 283 289 295 306 312 316 311 317 351 320 315 320 320 329 320
288 300 310 314 318 319 325 333 334 325 325 326 329 330 329 324 321 320 318 317 317 317 316 316 315 322 308 303 295 282 282 282 281 282 284 289 300 304 302 314 282 293 310 316 323 318 313
292 305 308 308 309 305 303 308 315 313 311 311 318 319 319 326 318 316 315 313 311 312 307 310 305 302 297 300 291 279 270 278 280 280 289 292 294 309 298 262 287 298 302 304 331 300 320
298 300 303 305 305 301 302 304 307 310 310 308 310 311 310 313 312 312 314 314 315 311 303 302 298 293 291 295 289 278 263 269 275 276 289 288 294 270 271 271 289 299 299 314 302 290 312
269 279 295 300 302 305 305 304 305 306 306 306 307 308 308 308 307 306 306 310 312 312 315 309 300 288 285 286 282 275 253 265 275 272 278 275 281 281 280 277 284 297 288 289 289 313 324
271 283 292 298 302 304 306 306 304 305 304 304 305 304 300 298 301 302 301 300 305 311 317 307 301 292 291 283 280 272 253 263 260 273 283 287 291 284 280 287 281 284 276 289 300 312 298
288 295 298 300 302 301 300 300 304 306 307 308 308 306 304 302 295 294 296 296 301 313 327 295 285 284 279 280 284 278 263 251 265 276 280 279 278 278 281 286 278 259 271 297 301 305 300
297 298 298 297 298 301 305 307 308 308 306 304 303 300 297 296 297 298 294 293 300 292 254 276 285 285 286 289 279 273 268 259 277 283 277 284 280 273 273 279 283 268 290 301 292 282 259
293 295 298 301 304 306 306 306 307 308 308 309 312 312 308 298 293 296 300 299 285 217 285 301 302 304 288 294 288 281 270 278 287 290 290 292 281 283 275 279 265 260 304 306 280 183 232
298 303 305 304 303 302 302 303 304 305 306 310 314 316 319 322 306 289 286 284 235 256 250 283 296 285 288 287 286 287 282 284 285 290 269 274 275 272 268 251 218 224 262 225 267 256 287
299 301 299 298 298 300 303 305 306 309 311 313 317 317 320 321 320 307 281 248 259 268 269 269 279 290 298 301 271 283 285 292 292 268 250 299 266 258 258 256 237 258 223 241 266 285 280
296 297 299 302 304 306 306 305 307 310 310 313 314 317 321 319 319 311 286 260 259 262 270 277 284 276 283 276 289 291 293 286 283 266 269 259 280 264 265 264 270 254 237 225 215 246 257
297 302 302 304 304 307 309 309 308 312 314 317 317 319 316 315 314 305 283 274 271 275 283 282 275 269 276 285 275 277 275 271 278 280 276 271 254 272 274 275 277 257 248 243 240 241 211
299 298 301 303 306 307 311 313 316 317 317 322 319 321 320 317 313 304 287 285 292 289 287 286 284 283 280 278 276 273 271 265 274 270 277 267 268 263 259 271 277 260 243 247 223 245 237
296 301 303 305 306 310 313 318 322 319 318 320 321 320 319 314 305 296 282 294 296 298 296 289 282 280 278 279 280 270 266 265 262 272 266 262 251 278 299 251 255 285 270 256 252 258 268
298 299 301 306 308 314 315 323 322 316 321 321 320 319 320 310 302 300 296 298 295 294 294 289 285 283 279 280 271 268 266 275 270 258 253 260 263 256 253 257 287 293 269 266 244 264 269
302 304 305 307 315 314 317 319 315 315 318 315 319 316 314 300 300 302 293 291 289 286 280 281 291 293 281 281 273 269 265 266 260 270 269 270 267 265 265 261 263 264 268 261 259 259 258
302 304 309 312 315 316 317 317 316 317 313 315 318 315 311 302 298 293 290 291 284 275 275 282 268 263 268 275 272 273 260 255 271 260 270 259 269 261 265 267 265 273 272 267 263 263 263
303 307 312 313 318 318 318 315 314 314 314 314 316 309 306 303 299 296 291 270 273 279 289 283 268 271 276 280 268 268 272 274 272 269 262 256 257 274 280 270 272 272 267 262 266 274 270
310 311 314 315 319 317 316 315 316 315 317 319 316 312 309 303 290 283 267 277 282 284 283 282 280 283 285 266 281 286 285 284 280 273 264 258 250 246 260 272 249 265 298 265 244 264 260
310 312 316 315 314 315 314 315 313 315 317 317 318 318 314 307 304 299 279 282 288 279 295 299 305 285 294 295 309 315 309 303 304 303 272 257 243 245 244 216 259 283 293 241 249 197 172
309 311 311 314 314 313 312 311 314 316 318 320 322 318 312 307 319 288 286 297 304 305 284 276 291 300 306 309 317 281 292 310 306 327 301 251 239 222 232 229 247 351 196 39 194 178 203
309 311 314 311 310 311 312 313 318 321 320 320 325 320 309 302 310 319 306 304 302 294 286 301 304 296 302 305 284 280 278 279 283 284 341 302 208 220 226 245 254 312 284 267 229 325 270
313 312 311 310 312 312 313 318 319 321 323 317 322 313 306 300 305 314 318 309 304 300 294 283 308 294 276 279 306 310 322 352 333 332 339 334 335 241 223 216 237 314 281 334 316 309 301
311 312 311 312 312 312 317 319 321 325 323 313 316 310 301 301 305 310 305 323 294 296 295 278 279 289 285 279 281 263 286 305 307 304 300 296 299 301 302 285 286 310 285 295 311 298 283
Height
3151 3151 3151 3151 3150 3149 3148 3147 3146 3145 3143 3142 3140 3138 3136 3135 3132 3131 3129 3127 3126 3125 3123 3122 3121 3120 3119 3118 3118 3116 3116 3115 3114 3113 3112 3110 3108 3107 3106 3105 3103 3102 3101 3098 3096 3094 3093
3150 3151 3151 3150 3149 3149 3148 3146 3146 3144 3143 3142 3140 3138 3136 3134 3132 3130 3128 3126 3125 3123 3122 3120 3119 3118 3117 3116 3115 3114 3113 3113 3112 3111 3110 3108 3107 3106 3105 3104 3102 3100 3098 3096 3094 3091 3089
3150 3150 3150 3150 3149 3148 3147 3146 3145 3144 3142 3141 3139 3138 3136 3133 3131 3129 3127 3125 3123 3122 3120 3118 3117 3115 3114 3114 3112 3112 3111 3110 3110 3109 3108 3107 3105 3104 3103 3102 3100 3098 3096 3093 3090 3087 3085
3149 3149 3149 3149 3148 3147 3146 3145 3144 3143 3142 3140 3139 3137 3135 3133 3130 3128 3126 3124 3121 3119 3117 3115 3114 3113 3112 3111 3110 3109 3109 3108 3108 3107 3106 3104 3103 3102 3101 3100 3098 3096 3094 3092 3090 3086 3082
3149 3149 3148 3148 3147 3146 3145 3144 3144 3143 3140 3139 3137 3135 3133 3131 3129 3127 3125 3123 3120 3118 3116 3113 3112 3110 3108 3108 3107 3106 3106 3105 3105 3104 3103 3102 3101 3100 3099 3098 3096 3094 3093 3090 3088 3084 3080
3148 3148 3148 3148 3147 3146 3145 3144 3143 3141 3139 3137 3135 3133 3131 3129 3126 3124 3122 3120 3118 3116 3114 3112 3110 3110 3107 3106 3104 3103 3103 3102 3101 3101 3100 3099 3098 3097 3096 3094 3094 3092 3090 3088 3086 3084 3077
3147 3147 3147 3146 3145 3144 3143 3142 3141 3139 3137 3135 3133 3131 3128 3126 3123 3121 3120 3117 3117 3115 3112 3111 3109 3105 3103 3103 3101 3100 3099 3099 3098 3098 3096 3095 3094 3093 3092 3091 3091 3089 3087 3084 3082 3079 3076
3146 3145 3145 3144 3143 3142 3141 3139 3138 3136 3134 3132 3130 3128 3126 3123 3120 3118 3115 3113 3111 3109 3105 3105 3103 3101 3098 3097 3096 3095 3096 3097 3095 3095 3093 3093 3090 3089 3089 3088 3087 3085 3083 3080 3080 3076 3072
3143 3143 3142 3141 3140 3139 3137 3136 3134 3132 3130 3128 3126 3124 3122 3119 3118 3115 3113 3111 3109 3105 3102 3099 3096 3093 3093 3093 3091 3091 3093 3092 3092 3091 3090 3089 3089 3088 3086 3085 3083 3081 3080 3078 3076 3071 3068
3141 3140 3139 3138 3137 3135 3134 3132 3130 3128 3126 3123 3122 3119 3117 3115 3115 3111 3110 3108 3106 3102 3098 3093 3090 3088 3089 3089 3088 3087 3087 3090 3088 3087 3087 3086 3084 3083 3083 3081 3080 3077 3076 3074 3071 3069 3066
3139 3138 3137 3135 3133 3131 3130 3128 3126 3124 3122 3120 3117 3115 3112 3110 3109 3108 3107 3104 3103 3103 3099 3090 3088 3087 3087 3089 3088 3086 3086 3085 3085 3084 3084 3082 3080 3079 3078 3077 3077 3075 3072 3071 3068 3065 3064
3136 3135 3133 3132 3130 3128 3127 3124 3122 3120 3117 3115 3112 3110 3107 3106 3104 3103 3101 3101 3102 3104 3096 3088 3087 3086 3086 3085 3084 3083 3084 3083 3082 3079 3078 3076 3074 3074 3073 3072 3072 3071 3069 3067 3064 3063 3062
3133 3131 3130 3129 3128 3126 3124 3121 3118 3116 3113 3110 3108 3105 3102 3100 3099 3099 3098 3099 3101 3098 3093 3088 3085 3084 3083 3082 3080 3079 3079 3079 3079 3077 3072 3071 3068 3067 3067 3067 3067 3068 3067 3065 3064 3063 3057
3130 3130 3128 3126 3125 3123 3120 3117 3114 3111 3109 3106 3104 3102 3099 3097 3094 3094 3094 3096 3096 3090 3089 3087 3083 3083 3082 3084 3079 3076 3073 3072 3072 3073 3069 3068 3066 3063 3062 3062 3063 3063 3065 3065 3063 3062 3054
3127 3126 3125 3123 3120 3117 3115 3113 3110 3108 3106 3103 3100 3098 3096 3093 3091 3090 3090 3089 3089 3087 3083 3083 3082 3079 3078 3078 3078 3074 3071 3070 3067 3067 3068 3065 3062 3060 3059 3058 3061 3060 3059 3060 3058 3056 3053
3123 3122 3120 3117 3116 3114 3112 3111 3108 3105 3102 3099 3096 3094 3092 3090 3088 3087 3087 3084 3084 3082 3081 3080 3078 3077 3074 3074 3074 3072 3070 3067 3065 3064 3062 3061 3059 3057 3057 3056 3055 3055 3057 3057 3056 3056 3049
3119 3117 3116 3114 3112 3111 3109 3106 3105 3101 3098 3096 3093 3091 3089 3087 3086 3084 3082 3080 3078 3078 3076 3077 3074 3071 3071 3069 3069 3067 3063 3064 3059 3059 3059 3058 3057 3054 3053 3053 3051 3051 3051 3053 3052 3050 3046
3116 3114 3113 3111 3110 3108 3106 3104 3101 3099 3095 3092 3090 3089 3086 3084 3084 3081 3078 3076 3075 3072 3073 3069 3068 3066 3066 3065 3060 3061 3059 3061 3055 3054 3054 3053 3052 3048 3048 3049 3048 3046 3045 3048 3046 3044 3041
3113 3111 3110 3109 3107 3105 3102 3098 3096 3094 3092 3089 3086 3084 3083 3081 3078 3077 3075 3073 3071 3068 3066 3064 3062 3059 3060 3058 3060 3054 3053 3051 3050 3049 3048 3048 3047 3044 3042 3043 3043 3040 3039 3040 3041 3040 3036
3108 3108 3107 3105 3103 3100 3098 3094 3093 3092 3088 3087 3084 3080 3078 3076 3075 3074 3070 3069 3067 3063 3060 3057 3057 3055 3051 3050 3052 3047 3049 3047 3044 3044 3044 3043 3041 3041 3039 3039 3038 3037 3037 3036 3037 3036 3033
3106 3104 3103 3101 3097 3095 3092 3091 3089 3087 3084 3084 3081 3076 3074 3072 3068 3068 3067 3064 3060 3058 3055 3052 3050 3047 3046 3044 3042 3042 3042 3037 3037 3038 3038 3038 3033 3035 3031 3032 3032 3029 3028 3030 3031 3029 3031
3102 3100 3098 3096 3093 3091 3088 3086 3085 3083 3081 3079 3076 3073 3069 3067 3064 3062 3060 3057 3053 3052 3049 3047 3047 3043 3038 3037 3038 3032 3032 3033 3030 3033 3033 3032 3026 3026 3022 3025 3025 3021 3018 3020 3020 3020 3022
3098 3097 3094 3092 3089 3087 3084 3080 3080 3077 3074 3071 3069 3065 3063 3061 3056 3056 3055 3052 3048 3045 3043 3041 3039 3035 3032 3031 3025 3025 3025 3024 3023 3025 3026 3025 3024 3024 3016 3020 3018 3012 3008 3010 3013 3014 3014
3095 3093 3091 3088 3084 3082 3080 3077 3072 3070 3066 3064 3060 3059 3056 3053 3052 3050 3047 3045 3042 3040 3036 3035 3033 3030 3028 3020 3016 3016 3015 3013 3013 3011 3015 3012 3018 3020 3013 3016 3014 3002 3006 3006 3006 3007 3007
3092 3088 3086 3083 3081 3077 3075 3071 3068 3063 3059 3057 3054 3051 3047 3044 3044 3042 3039 3039 3036 3034 3031 3030 3028 3024 3021 3017 3012 3007 3007 3006 3003 3001 3001 3004 3010 3012 3010 3007 3001 3000 3000 3001 3001 3002 3000
3087 3084 3082 3078 3075 3072 3069 3066 3062 3058 3054 3051 3048 3046 3042 3038 3041 3037 3033 3034 3030 3027 3025 3024 3023 3019 3018 3014 3011 3008 3007 3003 3003 3001 2999 2997 3002 3007 3006 3005 3000 2997 2996 2995 2994 2997 2996
3083 3079 3076 3074 3071 3068 3064 3060 3055 3052 3049 3045 3044 3042 3038 3034 3033 3033 3031 3028 3027 3025 3020 3020 3016 3015 3014 3012 3009 3007 3004 3005 3002 3001 3000 2998 2996 2996 3000 3001 2997 2992 2990 2992 2993 3000 2992
3077 3074 3072 3069 3066 3062 3058 3053 3050 3047 3045 3042 3042 3039 3037 3031 3027 3029 3028 3024 3023 3021 3017 3016 3015 3010 3010 3009 3007 3004 3001 3000 3000 2999 3000 3000 2998 2993 2993 2993 2995 2990 2991 2992 2994 2991 2989
3072 3070 3067 3063 3060 3056 3052 3048 3045 3043 3042 3039 3037 3035 3033 3029 3027 3025 3022 3021 3018 3016 3012 3010 3011 3009 3008 3004 3004 3003 3002 3001 3002 2999 2999 3002 3002 2998 3000 2989 2988 2991 2991 2990 2989 2985 2983